THOR ABLESTAR DEB, 13364

Orbit data source: Space-Track

THOR ABLESTAR DEB, 13364 is space debris in LEO originally from a launch on Thu, 29 Jun 1961 UTC launched from the Air Force Eastern Test Range (AFETR). Debris objects in space refer to the collection of defunct objects orbiting the Earth. Examples of debris include non-operational satellites, rocket bodies, and fragments generated from explosions, collisions, or faulty payload assembly.

Loading next visibility...
Identifier
13364, 1961-015KS
Orbit
LEO
Country
Flag of USUS
Related business
Manufacturer
Unknown
Mission
Spacecraft
Bus & Motor
Unknown
Mass
Unknown
Launch date (UTC)
1961-06-29 (64 years ago)
Launch vehicle
Unknown
Launch site
Air Force Eastern Test Range (AFETR)
Object type
Payload
Rocket body
Debris
Shape & HBR
Unknown shape, 0.1 m
Radar Cross Section
Small (<0.1 m²)

Expand to show TLE details & history
Last TLE update: 1 day ago

TLE from 1 day ago
0 THOR ABLESTAR DEB
1 13364U 61015KS  25338.66606991  .00001454  00000-0  14859-2 0  9997
2 13364  66.2610  80.5101 0104983 284.4739 192.3550 13.77116426385398
Epoch: 2025-12-04T15:59Z
TLE epoch observation values (Epoch: 2025-12-04T15:59:08.440Z)
Latitude
55.06866°
Longitude
-91.78253°
Altitude
1,057.811 km
Speed
7.291 km/s
True Right ascension
14h 46m 53s
True Declination
54° 54' 49"
Sunlit
Object was in daylight at epoch
Visualization orbit readout
Latitude
Unknown
Longitude
Unknown
Altitude
Unknown
Speed
Unknown
Apparent Right ascension
Unknown
Apparent Declination
Unknown
Sunlit
N/A
Visualization observer readout
Local Sidereal Time
13:27:41
Azimuth
Unknown
Elevation
Unknown
Doppler factor
Unknown
Orbital elements
Apogee altitude
1,049.768 km
Perigee altitude
895.428 km
Semi-major axis
7,350.735 km
Eccentricity
0.0105
Inclination
66.261°
RAAN
80.5101°
Arg. of periapsis
284.4739°
True anomaly
192.10085°
Mean anomaly
192.355°
Eccentric anomaly
192.2276°
Mean motion
3.44387 °/min
Orbital period
104.53 mins
BSTAR
0.0014859

Documentation

Showing up to 5 results
|